Tracking 19800 objects as of 24-Jul-2019
HD Live streaming from Space Station
objects crossing your sky now

NOAA 16 DEB

Track NOAA 16 DEB now!
10-day predictions


NORAD ID: 41365
Int'l Code: 2000-055JJ
Perigee: 797.2 km
Apogee: 860.9 km
Inclination: 98.9 °
Period: 101.3 minutes
Semi major axis: 7200 km
RCS: Unknown
Launch date: September 21, 2000
Source: United States (US)
Launch site: AIR FORCE WESTERN TEST RANGE (AFWTR)

Note: This is SATELLITE DEBRIS
aabbcc
Your satellite tracking list
Your tracking list is empty




NASA's NSSDC Master Catalog

Two Line Element Set (TLE):
1 41365U 00055JJ  19205.02134828  .00000790  00000-0  38147-3 0  9996
2 41365  98.8655 297.1322 0044220 271.6542  87.9570 14.21019892179041
Source of the keplerian elements: AFSPC